Location: Peebles
(55.6412°N, 3.1714°W)
Time: 14:21:24
(UTC+01:00)

Meteor 2-5 Rocket - Pass Details

Date: 26 September 2021
Orbit: 832 x 912 km, 81.2° (Epoch: 18 October)

Event Time Altitude Azimuth Distance (km) Brightness Sun altitude
Rises 21:08:13 0° 344° (NNW) 3,394 7.5 -18.3°
Reaches altitude 10° 21:10:38 10° 342° (NNW) 2,457 6.7 -18.6°
Maximum altitude 21:16:08 67° 261° (W) 912 4.0 -19.3°
Enters shadow 21:21:28 11° 180° (S) 2,392 5.8 -20.0°
